Tokyo, Japan

2:51 PM JST on July 19, 2018 (GMT +0900)
Tokyo (Haneda) International

Weather History for RJTT - January, 2018

Change the Weather History Date:

Saturday, January 13, 2018

  Actual Average Record
Temperature  
Mean Temperature 38 °F -  
Max Temperature 44 °F 48 °F 55 °F (2017)
Min Temperature 33 °F 35 °F 30 °F (2005)
Degree Days  
Heating Degree Days 26    
Moisture  
Dew Point 20 °F    
Average Humidity 47    
Maximum Humidity 57    
Minimum Humidity 37    
Precipitation  
Precipitation 0.00 in - - ()
Sea Level Pressure  
Sea Level Pressure 30.16 in    
Wind  
Wind Speed 8 mph ()    
Max Wind Speed 21 mph    
Max Gust Speed 31 mph    
Visibility 6.2 miles    
Events      
Averages and records for this station are not official NWS values.
T = Trace of Precipitation, MM = Missing Value Source: Averaged Metar Reports

Daily Weather History Graph

Daily Weather History Graph

Search for Another Location

Airport or City:

Astronomy

Jan. 13, 2018 Rise Set
Actual Time 6:50 AM JST 4:48 PM JST
Civil Twilight 6:22 AM JST 5:16 PM JST
Nautical Twilight 5:51 AM JST 5:48 PM JST
Astronomical Twilight 5:20 AM JST 6:18 PM JST
Moon 3:19 AM JST (1/13) 1:58 PM JST (1/13)
Length of Visible Light 10h 54m
Length of Day
9h 58m
Waning Crescent, 14% of the Moon is Illuminated
Jan 13
Waning Crescent
Jan 17
New
Jan 25
First Quarter
Jan 31
Full
Feb 8
Last Quarter

Hourly Weather History & Observations

Time (JST) Temp. Windchill Dew Point Humidity Pressure Visibility Wind Dir Wind Speed Gust Speed Precip Events Conditions
12:00 AM 39.2 °F 33.6 °F 21.2 °F 49% 30.18 in 6.2 mi North 8.1 mph - N/A   Partly Cloudy
12:30 AM 37.4 °F 30.8 °F 19.4 °F 48% 30.18 in 6.2 mi North 9.2 mph - N/A   Partly Cloudy
1:00 AM 37.4 °F 30.8 °F 19.4 °F 48% 30.18 in 6.2 mi North 9.2 mph - N/A   Partly Cloudy
1:30 AM 37.4 °F 30.8 °F 19.4 °F 48% 30.18 in 6.2 mi North 9.2 mph - N/A   Partly Cloudy
2:00 AM 35.6 °F 31.7 °F 19.4 °F 52% 30.18 in 6.2 mi NW 4.6 mph - N/A   Partly Cloudy
2:30 AM 33.8 °F 28.6 °F 19.4 °F 56% 30.18 in 6.2 mi NW 5.8 mph - N/A   Partly Cloudy
3:00 AM 33.8 °F 28.6 °F 19.4 °F 56% 30.18 in 6.2 mi NW 5.8 mph - N/A   Partly Cloudy
3:30 AM 37.4 °F 31.4 °F 21.2 °F 52% 30.18 in 6.2 mi North 8.1 mph - N/A   Partly Cloudy
4:00 AM 37.4 °F 28.9 °F 19.4 °F 48% 30.18 in 6.2 mi North 13.8 mph - N/A   Partly Cloudy
4:30 AM 35.6 °F 27.1 °F 19.4 °F 52% 30.18 in 6.2 mi North 12.7 mph - N/A   Partly Cloudy
5:00 AM 35.6 °F 27.1 °F 19.4 °F 52% 30.18 in 6.2 mi North 12.7 mph - N/A   Partly Cloudy
5:30 AM 35.6 °F 27.5 °F 17.6 °F 48% 30.18 in 6.2 mi North 11.5 mph - N/A   Partly Cloudy
6:00 AM 35.6 °F 28.6 °F 17.6 °F 48% 30.18 in 6.2 mi North 9.2 mph - N/A   Partly Cloudy
6:30 AM 35.6 °F 27.5 °F 17.6 °F 48% 30.18 in 6.2 mi NNW 11.5 mph - N/A   Partly Cloudy
7:00 AM 35.6 °F 27.1 °F 17.6 °F 48% 30.18 in 6.2 mi NNW 12.7 mph - N/A   Partly Cloudy
7:30 AM 35.6 °F 27.5 °F 15.8 °F 44% 30.18 in 6.2 mi NNW 11.5 mph - N/A   Partly Cloudy
8:00 AM 35.6 °F 28.6 °F 17.6 °F 48% 30.21 in 6.2 mi North 9.2 mph - N/A   Partly Cloudy
8:30 AM 35.6 °F 28.6 °F 19.4 °F 52% 30.21 in 6.2 mi North 9.2 mph - N/A   Partly Cloudy
9:00 AM 37.4 °F 31.4 °F 17.6 °F 45% 30.21 in 6.2 mi NNW 8.1 mph - N/A   Partly Cloudy
9:30 AM 37.4 °F 30.8 °F 17.6 °F 45% 30.21 in 6.2 mi NNW 9.2 mph - N/A   Partly Cloudy
10:00 AM 39.2 °F 33.6 °F 17.6 °F 42% 30.21 in 6.2 mi NNW 8.1 mph - N/A   Partly Cloudy
10:30 AM 39.2 °F 35.0 °F 17.6 °F 42% 30.21 in 6.2 mi North 5.8 mph - N/A   Partly Cloudy
11:00 AM 39.2 °F 35.9 °F 19.4 °F 45% 30.18 in 6.2 mi NNE 4.6 mph - N/A   Partly Cloudy
11:30 AM 41.0 °F 39.0 °F 19.4 °F 42% 30.15 in 6.2 mi ENE 3.5 mph - N/A   Partly Cloudy
12:00 PM 41.0 °F 38.0 °F 17.6 °F 39% 30.15 in 6.2 mi NE 4.6 mph - N/A   Partly Cloudy
12:30 PM 41.0 °F 37.1 °F 19.4 °F 42% 30.15 in 6.2 mi East 5.8 mph - N/A   Partly Cloudy
1:00 PM 41.0 °F 37.1 °F 19.4 °F 42% 30.12 in 6.2 mi East 5.8 mph - N/A   Partly Cloudy
1:30 PM 41.0 °F 37.1 °F 19.4 °F 42% 30.12 in 6.2 mi East 5.8 mph - N/A   Partly Cloudy
2:00 PM 42.8 °F 38.6 °F 23.0 °F 46% 30.09 in 6.2 mi East 6.9 mph - N/A   Partly Cloudy
2:30 PM 42.8 °F 38.0 °F 21.2 °F 42% 30.09 in 6.2 mi ESE 8.1 mph - N/A   Partly Cloudy
3:00 PM 44.6 °F 40.2 °F 21.2 °F 39% 30.09 in 6.2 mi ESE 8.1 mph - N/A   Partly Cloudy
3:30 PM 42.8 °F 38.0 °F 19.4 °F 39% 30.09 in 6.2 mi SSE 8.1 mph - N/A   Partly Cloudy
4:00 PM 42.8 °F 38.0 °F 23.0 °F 46% 30.09 in 6.2 mi SSE 8.1 mph - N/A   Partly Cloudy
4:30 PM 41.0 °F 37.1 °F 23.0 °F 49% 30.09 in 6.2 mi SE 5.8 mph - N/A   Partly Cloudy
5:00 PM 41.0 °F 36.4 °F 23.0 °F 49% 30.12 in 6.2 mi SSE 6.9 mph - N/A   Partly Cloudy
5:30 PM 39.2 °F 33.6 °F 23.0 °F 52% 30.12 in 6.2 mi SSE 8.1 mph - N/A   Partly Cloudy
6:00 PM 44.6 °F - 23.0 °F 43% 30.12 in 6.2 mi Variable 2.3 mph - N/A   Partly Cloudy
6:30 PM 44.6 °F - 19.4 °F 37% 30.12 in 6.2 mi Variable 1.2 mph - N/A   Partly Cloudy
7:00 PM 41.0 °F 39.0 °F 24.8 °F 53% 30.12 in 6.2 mi SE 3.5 mph - N/A   Partly Cloudy
7:30 PM 42.8 °F 40.1 °F 24.8 °F 49% 30.12 in 6.2 mi SE 4.6 mph - N/A   Partly Cloudy
8:00 PM 42.8 °F 39.3 °F 24.8 °F 49% 30.12 in 6.2 mi ESE 5.8 mph - N/A   Partly Cloudy
8:30 PM 44.6 °F - 24.8 °F 46% 30.15 in 6.2 mi Variable 2.3 mph - N/A   Partly Cloudy
9:00 PM 42.8 °F 38.0 °F 28.4 °F 57% 30.15 in 6.2 mi NNE 8.1 mph - N/A   Partly Cloudy
9:30 PM 42.8 °F 37.5 °F 24.8 °F 49% 30.15 in 6.2 mi NNW 9.2 mph - N/A   Partly Cloudy
10:00 PM 41.0 °F 34.3 °F 24.8 °F 53% 30.18 in 6.2 mi NW 11.5 mph - N/A   Partly Cloudy
10:30 PM 39.2 °F 30.2 °F 19.4 °F 45% 30.18 in 6.2 mi NNW 17.3 mph - N/A   Partly Cloudy
11:00 PM 39.2 °F 29.8 °F 19.4 °F 45% 30.21 in 6.2 mi NNW 18.4 mph - N/A   Partly Cloudy
11:02 PM 39.2 °F 29.6 °F 19.4 °F 45% 30.21 in 6.2 mi NNW 19.6 mph 31.1 mph N/A   Partly Cloudy
11:30 PM 39.2 °F 29.3 °F 21.2 °F 49% 30.21 in 6.2 mi NNW 20.7 mph - N/A   Partly Cloudy